TimeICT,TemperatureF,Dew PointF,Humidity,Sea Level PressureIn,VisibilityMPH,Wind Direction,Wind SpeedMPH,Gust SpeedMPH,PrecipitationIn,Events,Conditions,WindDirDegrees,DateUTC
12:00 AM,77.0,75.2,94,29.89,5.6,Calm,Calm,-,N/A,,Scattered Clouds,0,2012-12-07 17:00:00
12:30 AM,78.8,75.2,89,29.89,5.6,Calm,Calm,-,N/A,,Scattered Clouds,0,2012-12-07 17:30:00
1:00 AM,79,76,89,29.84,6,Calm,Calm,,,,Mist,,2012-12-07 18:00:00
1:00 AM,77.0,75.2,94,29.86,5.6,Calm,Calm,-,N/A,,Scattered Clouds,0,2012-12-07 18:00:00
1:30 AM,77.0,73.4,89,29.86,5.6,SE,2.3,-,N/A,,Scattered Clouds,140,2012-12-07 18:30:00
2:00 AM,77.0,73.4,89,29.86,5.6,Calm,Calm,-,N/A,,Scattered Clouds,0,2012-12-07 19:00:00
2:30 AM,75.2,73.4,94,29.83,5.6,Calm,Calm,-,N/A,,Scattered Clouds,0,2012-12-07 19:30:00
3:00 AM,75.2,73.4,94,29.83,5.6,Calm,Calm,-,N/A,,Scattered Clouds,0,2012-12-07 20:00:00
3:30 AM,75.2,73.4,94,29.83,5.6,Variable,2.3,-,N/A,,Scattered Clouds,0,2012-12-07 20:30:00
4:00 AM,75.2,73.4,94,29.83,5.6,Calm,Calm,-,N/A,,Scattered Clouds,0,2012-12-07 21:00:00
4:30 AM,75.2,73.4,94,29.83,5.6,Calm,Calm,-,N/A,,Scattered Clouds,0,2012-12-07 21:30:00
6:00 AM,77.0,71.6,83,29.83,4.3,East,3.5,-,N/A,,Scattered Clouds,100,2012-12-07 23:00:00
6:30 AM,77.0,71.6,83,29.83,5.0,ENE,3.5,-,N/A,,Scattered Clouds,60,2012-12-07 23:30:00
7:00 AM,78,74,84,29.81,5,East,3.5,,,,Mist,80,2012-12-08 00:00:00
7:00 AM,77.0,73.4,89,29.86,5.0,East,4.6,-,N/A,,Scattered Clouds,80,2012-12-08 00:00:00
7:30 AM,78.8,73.4,83,29.86,4.3,East,4.6,-,N/A,,Scattered Clouds,90,2012-12-08 00:30:00
8:00 AM,80.6,73.4,79,29.86,4.3,East,8.1,-,N/A,,Scattered Clouds,90,2012-12-08 01:00:00
8:30 AM,82.4,73.4,74,29.89,4.3,East,9.2,-,N/A,,Scattered Clouds,80,2012-12-08 01:30:00
9:00 AM,82.4,75.2,79,29.89,4.3,ENE,10.4,-,N/A,,Scattered Clouds,70,2012-12-08 02:00:00
9:30 AM,84.2,73.4,70,29.92,4.3,East,6.9,-,N/A,,Scattered Clouds,80,2012-12-08 02:30:00
10:00 AM,84.2,73.4,70,29.89,4.3,East,8.1,-,N/A,,Scattered Clouds,80,2012-12-08 03:00:00
10:30 AM,86.0,73.4,66,29.89,4.3,ENE,6.9,-,N/A,,Scattered Clouds,70,2012-12-08 03:30:00
11:00 AM,86.0,73.4,66,29.89,4.3,NE,8.1,-,N/A,,Scattered Clouds,50,2012-12-08 04:00:00
11:30 AM,87.8,73.4,62,29.89,4.3,NE,8.1,-,N/A,,Scattered Clouds,50,2012-12-08 04:30:00
12:00 PM,87.8,71.6,58,29.86,5.0,NE,9.2,-,N/A,,Scattered Clouds,50,2012-12-08 05:00:00
12:30 PM,87.8,71.6,58,29.86,5.0,NE,8.1,-,N/A,,Scattered Clouds,50,2012-12-08 05:30:00
1:00 PM,89,73,51,29.83,6,ENE,6.9,,,,Scattered Clouds,60,2012-12-08 06:00:00
1:00 PM,87.8,69.8,55,29.86,5.0,ENE,5.8,-,N/A,,Scattered Clouds,60,2012-12-08 06:00:00
1:30 PM,87.8,69.8,55,29.83,5.0,ENE,8.1,-,N/A,,Scattered Clouds,60,2012-12-08 06:30:00
2:00 PM,89.6,69.8,52,29.80,5.0,NE,9.2,-,N/A,,Scattered Clouds,50,2012-12-08 07:00:00
2:30 PM,89.6,69.8,52,29.80,5.0,East,4.6,-,N/A,,Scattered Clouds,90,2012-12-08 07:30:00
3:00 PM,89.6,69.8,52,29.80,5.0,ENE,6.9,-,N/A,,Scattered Clouds,70,2012-12-08 08:00:00
3:30 PM,89.6,69.8,52,29.77,5.0,ENE,6.9,-,N/A,,Scattered Clouds,60,2012-12-08 08:30:00
4:00 PM,89.6,69.8,52,29.77,5.0,ENE,4.6,-,N/A,,Scattered Clouds,60,2012-12-08 09:00:00
4:30 PM,87.8,73.4,62,29.77,5.0,West,8.1,-,N/A,,Scattered Clouds,280,2012-12-08 09:30:00
5:00 PM,87.8,73.4,62,29.77,5.0,WNW,9.2,-,N/A,,Scattered Clouds,300,2012-12-08 10:00:00
5:30 PM,84.2,73.4,70,29.77,5.0,WNW,8.1,-,N/A,,Scattered Clouds,300,2012-12-08 10:30:00
6:00 PM,84.2,73.4,70,29.80,5.0,WNW,8.1,-,N/A,,Scattered Clouds,290,2012-12-08 11:00:00
6:30 PM,82.4,73.4,74,29.80,5.0,NW,6.9,-,N/A,,Scattered Clouds,310,2012-12-08 11:30:00
7:00 PM,85,75,64,29.78,6,NW,5.8,,,,Scattered Clouds,310,2012-12-08 12:00:00
7:00 PM,82.4,73.4,74,29.83,5.0,NW,6.9,-,N/A,,Scattered Clouds,310,2012-12-08 12:00:00
7:30 PM,82.4,73.4,74,29.83,5.0,NW,5.8,-,N/A,,Scattered Clouds,320,2012-12-08 12:30:00
8:00 PM,82.4,73.4,74,29.83,5.0,NW,5.8,-,N/A,,Scattered Clouds,310,2012-12-08 13:00:00
8:30 PM,80.6,73.4,79,29.86,5.0,NW,4.6,-,N/A,,Scattered Clouds,310,2012-12-08 13:30:00
9:00 PM,80.6,73.4,79,29.86,5.6,NW,4.6,-,N/A,,Scattered Clouds,320,2012-12-08 14:00:00
9:30 PM,82.4,73.4,74,29.86,5.6,NW,3.5,-,N/A,,Scattered Clouds,310,2012-12-08 14:30:00
10:00 PM,80.6,73.4,79,29.86,5.6,Calm,Calm,-,N/A,,Scattered Clouds,0,2012-12-08 15:00:00
11:00 PM,77.0,73.4,89,29.86,5.6,Calm,Calm,-,N/A,,Scattered Clouds,0,2012-12-08 16:00:00
11:30 PM,77.0,75.2,94,29.86,5.6,SSE,2.3,-,N/A,,Scattered Clouds,150,2012-12-08 16:30:00